• în Republica Moldova
  • Lista ţărilor
  • Pe 7 zile
  • Temperatura apei
  • Hartă satelitară
  • Meteo pe hartă
  • Widget-uri
  • user-avatar
    Intrare

    Meteo pe oră la Quito

    Astăzi, 23 Ianuarie, Luni

    Timp Temperatura Precipitaţii Vânt Presiune Umiditate
    00:00 +16°C° 0,3 mm 1 m/s 621 mmHg 84%
    01:00 +18°C° 0 mm 1 m/s 621 mmHg 90%
    02:00 +18°C° 0,5 mm 1 m/s 621 mmHg 90%
    03:00 +16°C° 0,5 mm 1 m/s 621 mmHg 90%
    04:00 +16°C° 0,5 mm 1 m/s 620 mmHg 90%
    05:00 +18°C° 0 mm 1 m/s 621 mmHg 89%
    06:00 +18°C° 0 mm 1 m/s 621 mmHg 88%
    07:00 +19°C° 0 mm 1 m/s 622 mmHg 87%
    08:00 +21°C° 0 mm 1 m/s 622 mmHg 75%
    09:00 +24°C° 0 mm 2 m/s 623 mmHg 64%
    10:00 +26°C° 0 mm 2 m/s 624 mmHg 53%
    11:00 +27°C° 0,5 mm 2 m/s 623 mmHg 53%
    12:00 +27°C° 0,5 mm 2 m/s 623 mmHg 53%
    13:00 +28°C° 0,5 mm 2 m/s 623 mmHg 53%
    14:00 +26°C° 1,2 mm 2 m/s 622 mmHg 61%
    15:00 +25°C° 1,2 mm 2 m/s 621 mmHg 70%
    16:00 +24°C° 1,2 mm 1 m/s 620 mmHg 78%
    17:00 +23°C° 0,9 mm 1 m/s 621 mmHg 82%
    18:00 +21°C° 0,9 mm 1 m/s 621 mmHg 86%
    19:00 +20°C° 0,9 mm 1 m/s 621 mmHg 91%
    20:00 +19°C° 0,8 mm 1 m/s 621 mmHg 92%
    21:00 +19°C° 0,8 mm 1 m/s 621 mmHg 93%
    22:00 +17°C° 0,8 mm 2 m/s 622 mmHg 94%
    23:00 +17°C° 0,7 mm 2 m/s 621 mmHg 95%

    Mâine, 24 Ianuarie, Marţi

    Timp Temperatura Precipitaţii Vânt Presiune Umiditate
    00:00 +16°C° 0,7 mm 2 m/s 621 mmHg 96%
    01:00 +16°C° 0,7 mm 2 m/s 621 mmHg 97%
    02:00 +16°C° 0 mm 2 m/s 621 mmHg 97%
    03:00 +16°C° 0 mm 2 m/s 621 mmHg 97%
    04:00 +15°C° 0 mm 2 m/s 621 mmHg 97%
    05:00 +14°C° 0 mm 3 m/s 621 mmHg 96%
    06:00 +16°C° 0 mm 3 m/s 622 mmHg 95%
    07:00 +16°C° 0 mm 3 m/s 622 mmHg 94%
    08:00 +17°C° 0 mm 4 m/s 623 mmHg 84%
    09:00 +19°C° 0 mm 4 m/s 623 mmHg 74%
    10:00 +21°C° 0 mm 4 m/s 624 mmHg 65%
    11:00 +22°C° 0 mm 4 m/s 624 mmHg 60%
    12:00 +23°C° 0 mm 4 m/s 624 mmHg 55%
    13:00 +26°C° 0 mm 4 m/s 624 mmHg 50%
    14:00 +25°C° 0,1 mm 4 m/s 623 mmHg 52%
    15:00 +25°C° 0,1 mm 4 m/s 623 mmHg 53%
    16:00 +25°C° 0,1 mm 4 m/s 622 mmHg 54%
    17:00 +22°C° 0 mm 3 m/s 622 mmHg 62%
    18:00 +20°C° 0 mm 3 m/s 622 mmHg 71%
    19:00 +18°C° 0 mm 2 m/s 622 mmHg 79%
    20:00 +17°C° 0 mm 2 m/s 622 mmHg 81%
    21:00 +17°C° 0 mm 3 m/s 622 mmHg 83%
    22:00 +16°C° 0 mm 3 m/s 622 mmHg 85%
    23:00 +14°C° 0 mm 3 m/s 622 mmHg 86%

    Poimâine, 25 Ianuarie, Miercuri

    Timp Temperatura Precipitaţii Vânt Presiune Umiditate
    00:00 +14°C° 0 mm 3 m/s 622 mmHg 87%
    01:00 +13°C° 0 mm 3 m/s 621 mmHg 87%
    02:00 +14°C° 0 mm 2 m/s 621 mmHg 87%
    03:00 +13°C° 0 mm 2 m/s 621 mmHg 87%
    04:00 +13°C° 0 mm 2 m/s 621 mmHg 86%
    05:00 +14°C° 0 mm 2 m/s 621 mmHg 82%
    06:00 +15°C° 0 mm 2 m/s 622 mmHg 78%
    07:00 +15°C° 0 mm 2 m/s 622 mmHg 74%
    08:00 +18°C° 0 mm 3 m/s 623 mmHg 63%
    09:00 +21°C° 0 mm 3 m/s 624 mmHg 52%
    10:00 +26°C° 0 mm 4 m/s 625 mmHg 41%
    11:00 +27°C° 0 mm 4 m/s 625 mmHg 38%
    12:00 +28°C° 0 mm 5 m/s 624 mmHg 35%
    13:00 +29°C° 0 mm 5 m/s 624 mmHg 32%
    14:00 +29°C° 0 mm 5 m/s 624 mmHg 34%
    15:00 +29°C° 0 mm 4 m/s 623 mmHg 35%
    16:00 +28°C° 0 mm 4 m/s 623 mmHg 37%
    17:00 +26°C° 0 mm 4 m/s 622 mmHg 47%
    18:00 +22°C° 0 mm 3 m/s 622 mmHg 58%
    19:00 +19°C° 0 mm 2 m/s 622 mmHg 69%
    20:00 +18°C° 0 mm 2 m/s 622 mmHg 73%
    21:00 +17°C° 0 mm 2 m/s 623 mmHg 77%
    22:00 +16°C° 0 mm 2 m/s 623 mmHg 82%
    23:00 +16°C° 0 mm 2 m/s 623 mmHg 84%

    26 Ianuarie, Joi

    Timp Temperatura Precipitaţii Vânt Presiune Umiditate
    00:00 +15°C° 0 mm 2 m/s 622 mmHg 87%
    01:00 +14°C° 0 mm 2 m/s 622 mmHg 89%
    02:00 +14°C° 0 mm 2 m/s 621 mmHg 90%
    03:00 +13°C° 0 mm 2 m/s 621 mmHg 91%
    04:00 +13°C° 0 mm 2 m/s 621 mmHg 92%
    05:00 +14°C° 0 mm 1 m/s 621 mmHg 88%
    06:00 +15°C° 0 mm 1 m/s 622 mmHg 85%
    07:00 +16°C° 0 mm 1 m/s 623 mmHg 82%
    08:00 +20°C° 0 mm 1 m/s 624 mmHg 69%
    09:00 +23°C° 0 mm 2 m/s 625 mmHg 56%
    10:00 +26°C° 0 mm 2 m/s 625 mmHg 43%
    11:00 +27°C° 0 mm 2 m/s 625 mmHg 39%
    12:00 +29°C° 0 mm 3 m/s 624 mmHg 36%
    13:00 +30°C° 0 mm 3 m/s 624 mmHg 32%
    14:00 +30°C° 0 mm 3 m/s 623 mmHg 34%
    15:00 +29°C° 0 mm 3 m/s 623 mmHg 37%
    16:00 +29°C° 0 mm 3 m/s 622 mmHg 40%
    17:00 +26°C° 0,3 mm 3 m/s 622 mmHg 50%
    18:00 +24°C° 0,3 mm 2 m/s 622 mmHg 60%
    19:00 +20°C° 0,3 mm 2 m/s 622 mmHg 70%
    20:00 +19°C° 0,6 mm 2 m/s 622 mmHg 75%
    21:00 +18°C° 0,6 mm 2 m/s 622 mmHg 80%
    22:00 +17°C° 0,6 mm 2 m/s 623 mmHg 86%
    23:00 +17°C° 0,1 mm 2 m/s 622 mmHg 87%

    27 Ianuarie, Vineri

    Timp Temperatura Precipitaţii Vânt Presiune Umiditate
    00:00 +16°C° 0,1 mm 2 m/s 622 mmHg 89%
    01:00 +16°C° 0,1 mm 2 m/s 621 mmHg 90%
    02:00 +15°C° 0 mm 2 m/s 621 mmHg 91%
    03:00 +15°C° 0 mm 2 m/s 621 mmHg 92%
    04:00 +14°C° 0 mm 2 m/s 621 mmHg 92%
    05:00 +15°C° 0 mm 1 m/s 621 mmHg 91%
    06:00 +15°C° 0 mm 1 m/s 622 mmHg 90%
    07:00 +16°C° 0 mm 1 m/s 623 mmHg 88%
    08:00 +20°C° 0 mm 1 m/s 623 mmHg 76%
    09:00 +23°C° 0 mm 1 m/s 624 mmHg 64%
    10:00 +25°C° 0 mm 1 m/s 625 mmHg 51%
    11:00 +27°C° 0 mm 2 m/s 625 mmHg 45%
    12:00 +28°C° 0 mm 2 m/s 624 mmHg 39%
    13:00 +29°C° 0 mm 3 m/s 624 mmHg 32%
    14:00 +29°C° 0 mm 3 m/s 624 mmHg 33%
    15:00 +29°C° 0 mm 3 m/s 623 mmHg 33%
    16:00 +29°C° 0 mm 3 m/s 623 mmHg 33%
    17:00 +26°C° 0 mm 3 m/s 622 mmHg 42%
    18:00 +23°C° 0 mm 2 m/s 622 mmHg 50%
    19:00 +19°C° 0 mm 2 m/s 621 mmHg 58%
    20:00 +18°C° 0 mm 2 m/s 622 mmHg 59%
    21:00 +17°C° 0 mm 2 m/s 622 mmHg 59%
    22:00 +16°C° 0 mm 2 m/s 622 mmHg 60%
    23:00 +16°C° 0 mm 2 m/s 621 mmHg 63%

    28 Ianuarie, Sâmbătă

    Timp Temperatura Precipitaţii Vânt Presiune Umiditate
    00:00 +15°C° 0 mm 2 m/s 621 mmHg 65%
    01:00 +14°C° 0 mm 2 m/s 620 mmHg 68%
    02:00 +14°C° 0 mm 2 m/s 620 mmHg 70%
    03:00 +14°C° 0 mm 2 m/s 620 mmHg 71%
    04:00 +13°C° 0 mm 1 m/s 620 mmHg 73%
    05:00 +14°C° 0 mm 1 m/s 621 mmHg 71%
    06:00 +15°C° 0 mm 1 m/s 621 mmHg 68%
    07:00 +16°C° 0 mm 1 m/s 622 mmHg 66%
    08:00 +19°C° 0 mm 2 m/s 623 mmHg 54%
    09:00 +23°C° 0 mm 2 m/s 624 mmHg 43%
    10:00 +26°C° 0 mm 2 m/s 625 mmHg 31%
    11:00 +27°C° 0 mm 2 m/s 625 mmHg 28%
    12:00 +29°C° 0 mm 3 m/s 624 mmHg 25%
    13:00 +30°C° 0 mm 3 m/s 624 mmHg 23%
    14:00 +30°C° 0 mm 3 m/s 624 mmHg 24%
    15:00 +29°C° 0 mm 3 m/s 623 mmHg 25%
    16:00 +29°C° 0 mm 3 m/s 623 mmHg 26%
    17:00 +26°C° 0 mm 3 m/s 622 mmHg 34%
    18:00 +23°C° 0 mm 2 m/s 622 mmHg 43%
    19:00 +19°C° 0 mm 2 m/s 621 mmHg 51%
    20:00 +18°C° 0 mm 2 m/s 621 mmHg 55%
    21:00 +17°C° 0 mm 2 m/s 622 mmHg 58%
    22:00 +16°C° 0 mm 3 m/s 622 mmHg 61%
    23:00 +16°C° 0 mm 3 m/s 621 mmHg 63%
    Arată mai mult